Location: Asheville, NC
(35.6000°N, 82.5500°W)
Time: 19:25:26
(UTC-05:00)

Envisat - Pass Details

Date: 11 October 2017
Orbit: 764 x 766 km, 98.2° (Epoch: 11 December)

Event Time Altitude Azimuth Distance (km) Brightness Sun altitude
Exits shadow 22:10:53 20° 312° (NW) 1,722 5.3 -39.1°
Drops below altitude 10° 22:12:43 10° 326° (NNW) 2,306 6.0 -39.4°
Sets 22:15:15 0° 336° (NNW) 3,237 6.8 -39.9°
